Vorticity
11 9 8 9 -0 -1 11 -7 2 11 3 3 14 -2 -8 -5 2 -16 18 8 4 8 7 5 4 4 4 2 3 3 3 3 3 3 3 1 0 3 8 3 4 10 6 2 10 -1 10 4 6
6 11 11 9 -12 -0 9 5 14 8 9 13 -2 8 8 1 -1 -14 -1 21 10 8 4 3 3 6 6 4 3 4 4 2 3 4 5 3 1 2 2 6 5 12 7 3 5 6 3 7 5
6 8 5 1 15 0 2 3 7 9 12 8 8 7 9 13 2 11 -6 15 13 6 5 5 4 3 4 3 4 3 3 3 3 2 4 3 5 4 -1 2 5 5 9 8 4 0 6 2 7
7 10 7 -12 -1 13 -9 20 2 14 10 4 7 4 9 1 17 1 1 4 18 8 8 5 3 2 5 2 2 7 3 5 2 2 2 4 5 4 3 1 3 5 13 6 4 5 -7 8 4
8 3 1 14 4 2 14 -7 2 13 5 7 4 1 5 5 3 7 1 2 6 10 7 3 5 5 2 4 3 9 11 6 6 5 4 4 5 4 4 3 2 4 8 13 4 2 5 7 5
8 -2 4 4 6 4 7 2 13 7 6 7 7 5 -1 7 9 3 2 3 2 5 3 5 5 4 6 5 5 3 -0 1 6 3 4 5 3 4 4 2 4 4 6 13 7 3 -2 2 6
4 12 1 -1 11 5 9 7 10 9 9 3 3 4 4 0 4 7 6 5 4 3 3 2 2 3 4 2 1 1 1 -0 -3 0 7 3 7 3 3 4 4 7 6 9 10 6 6 4 1
10 -10 16 9 15 -3 11 10 4 8 -1 10 3 14 2 7 2 0 2 3 3 3 2 2 1 0 0 1 4 5 2 2 7 5 4 -1 5 -4 5 2 6 4 7 14 11 3 15 3 -15
9 -4 10 6 11 7 5 9 9 8 15 5 3 1 6 9 3 8 9 6 4 4 4 3 3 1 2 2 3 3 4 1 0 2 2 7 0 9 7 -2 1 5 6 15 7 0 11 3 3
8 9 8 -2 -2 -4 3 10 16 12 7 4 2 4 4 2 4 8 9 7 8 8 8 8 8 8 9 9 7 7 7 5 4 3 3 2 3 6 4 -2 11 3 2 13 6 1 4 1 4
9 -13 13 6 4 -3 5 10 11 13 6 6 4 5 6 4 4 5 5 5 5 4 5 5 6 6 6 5 6 7 8 8 9 7 5 3 2 4 2 11 9 11 -15 5 10 4 2 1 5
10 8 1 0 4 5 11 7 9 11 -1 9 6 6 6 6 5 5 6 6 6 6 6 6 6 6 6 6 7 5 6 6 8 9 8 7 6 6 0 -5 7 5 11 -18 19 8 3 2 1
10 9 7 10 12 7 10 8 6 11 11 8 5 8 6 5 4 4 5 6 6 6 6 6 6 6 6 6 6 6 7 6 5 5 7 8 7 6 7 8 2 4 4 6 -12 4 10 2 2
5 21 9 9 9 10 11 9 9 8 7 9 7 6 7 8 8 9 8 7 6 6 6 6 6 6 6 6 7 7 7 7 7 7 6 5 5 6 8 7 7 4 5 2 2 5 7 5 5
10 12 13 14 11 8 10 8 8 8 8 11 8 8 7 7 7 6 6 7 7 7 7 7 6 6 6 6 6 6 7 8 8 8 8 7 5 6 5 5 11 9 3 4 0 12 -37 -3 10
21 15 16 17 14 10 6 2 27 13 4 4 5 6 5 4 6 7 7 6 7 7 7 8 8 7 6 7 7 8 8 8 8 8 9 10 9 8 6 7 6 13 8 4 6 -5 13 37 9
19 5 13 17 16 9 6 10 21 -3 7 12 16 14 13 8 7 6 6 6 7 8 8 8 7 7 6 7 8 9 7 6 6 7 6 6 8 11 12 10 10 6 12 7 3 2 11 -4 -3
17 15 11 -1 19 15 8 5 -4 -3 6 13 13 11 7 5 7 6 4 4 7 8 8 8 7 8 8 8 8 6 8 9 8 8 8 10 9 11 15 15 15 12 9 9 9 -0 5 7 -3
-2 3 0 -2 10 7 10 7 2 5 3 3 6 -5 4 9 7 5 2 5 8 8 7 7 7 7 9 8 9 10 8 9 10 12 12 13 14 13 18 22 20 19 11 8 4 9 8 6 10
3 -1 0 5 8 10 7 7 8 8 8 6 12 -1 11 20 9 -0 4 6 7 9 7 8 8 8 9 8 9 12 11 12 12 12 13 15 17 18 17 21 31 20 16 10 11 2 0 12 -11
18 14 4 1 4 11 15 40 32 23 13 8 12 6 17 9 1 2 4 8 8 9 7 8 7 8 8 9 11 12 15 17 15 14 13 12 12 12 14 18 35 29 22 11 7 21 1 20 10
10 13 10 7 12 4 6 4 5 6 11 25 32 16 11 1 -3 3 8 9 8 8 9 7 7 8 9 10 13 14 14 13 7 7 10 12 14 13 13 15 17 43 27 16 9 -2 22 1 7
-2 5 8 12 13 11 32 5 23 24 16 16 30 16 5 -5 0 6 8 8 9 9 8 8 7 9 10 13 13 15 13 10 4 13 21 14 14 16 16 12 17 43 28 22 5 13 -24 31 18
11 9 12 24 21 15 39 -14 27 16 28 29 17 4 -5 -3 2 6 8 8 8 8 7 7 8 10 11 15 15 13 6 7 14 10 13 2 3 8 8 8 11 35 29 31 1 43 21 -41 24
14 13 22 10 5 17 15 12 -16 11 14 26 12 -5 -3 -0 4 7 8 8 8 8 8 8 8 10 13 17 15 9 2 7 12 4 13 18 19 18 14 18 16 26 22 41 8 -10 15 7 -16
-0 2 -2 13 12 3 -0 16 11 29 18 17 0 -2 -0 3 7 8 7 7 8 8 8 8 8 11 15 21 13 7 2 9 11 12 17 12 13 15 16 19 26 17 22 38 -10 21 -8 49 8
15 16 12 4 15 10 9 15 18 0 23 7 -6 -2 5 7 7 8 8 7 8 9 8 7 8 12 18 21 13 7 3 11 13 14 16 9 12 23 16 26 23 14 25 41 5 -24 -9 -9 -40
1 5 11 13 11 12 19 10 -13 17 22 3 -5 4 -1 3 8 6 7 7 8 8 8 7 8 13 19 21 11 6 7 11 14 10 13 11 13 24 25 22 22 15 29 54 19 -16 -7 7 1
12 10 8 -2 -0 7 7 13 5 21 25 4 -3 -21 -11 -0 12 6 7 7 8 9 8 7 9 13 19 19 11 7 8 13 11 11 10 18 28 24 26 24 19 18 28 45 19 5 15 14 -72
9 -2 9 -7 26 6 1 7 13 12 -6 -5 -7 6 -2 -0 11 6 7 6 8 9 8 7 9 13 19 20 10 8 9 13 12 8 18 24 23 17 24 23 28 22 37 72 -7 0 24 12 67
Height
3095 3096 3097 3101 3108 3101 3099 3101 3101 3100 3101 3103 3104 3107 3107 3110 3112 3115 3112 3116 3119 3120 3122 3124 3126 3128 3130 3131 3133 3136 3138 3139 3141 3143 3145 3145 3145 3145 3146 3147 3146 3147 3149 3151 3152 3152 3152 3154 3156
3093 3094 3097 3098 3100 3098 3095 3098 3097 3096 3096 3100 3103 3105 3106 3106 3109 3110 3111 3112 3114 3118 3120 3122 3125 3127 3129 3130 3133 3134 3137 3139 3140 3142 3143 3145 3146 3145 3146 3146 3147 3148 3148 3150 3152 3154 3154 3154 3156
3091 3093 3096 3097 3095 3093 3094 3093 3093 3093 3096 3098 3100 3103 3103 3104 3106 3109 3109 3111 3113 3115 3118 3120 3123 3125 3127 3130 3131 3133 3134 3137 3140 3140 3142 3144 3145 3146 3146 3147 3147 3148 3149 3150 3152 3154 3154 3154 3155
3090 3093 3094 3091 3090 3092 3091 3090 3087 3090 3094 3096 3099 3101 3102 3103 3106 3108 3109 3110 3112 3114 3116 3118 3121 3123 3125 3127 3129 3132 3133 3135 3137 3139 3141 3143 3144 3145 3147 3147 3147 3147 3148 3150 3152 3153 3154 3154 3155
3086 3088 3090 3086 3086 3086 3086 3084 3086 3088 3090 3093 3095 3097 3099 3101 3103 3105 3107 3109 3111 3113 3114 3117 3118 3122 3123 3125 3127 3129 3132 3134 3137 3138 3140 3141 3143 3144 3145 3146 3147 3147 3148 3149 3151 3152 3153 3153 3155
3082 3084 3085 3083 3084 3081 3081 3082 3083 3084 3086 3090 3091 3093 3095 3097 3099 3102 3104 3106 3108 3110 3112 3114 3116 3118 3121 3122 3124 3127 3128 3131 3133 3136 3139 3140 3140 3142 3142 3144 3146 3147 3147 3148 3150 3152 3153 3153 3154
3078 3079 3078 3079 3081 3077 3076 3077 3080 3082 3083 3085 3086 3088 3092 3094 3096 3098 3100 3103 3105 3107 3109 3112 3113 3116 3117 3119 3120 3123 3125 3127 3129 3132 3135 3138 3139 3140 3141 3142 3143 3145 3146 3147 3148 3151 3152 3153 3153
3074 3073 3073 3075 3076 3078 3071 3075 3075 3076 3077 3081 3083 3083 3086 3089 3092 3095 3097 3098 3100 3103 3105 3107 3110 3112 3114 3116 3117 3119 3121 3123 3125 3127 3129 3133 3138 3138 3140 3140 3142 3144 3144 3145 3146 3149 3150 3153 3153
3067 3068 3067 3071 3072 3071 3068 3071 3071 3073 3074 3076 3077 3078 3083 3086 3088 3090 3092 3094 3096 3098 3100 3102 3104 3107 3108 3111 3113 3116 3117 3119 3120 3122 3125 3127 3129 3135 3137 3138 3140 3143 3143 3143 3144 3147 3149 3150 3150
3061 3060 3064 3063 3062 3062 3066 3068 3068 3070 3069 3071 3072 3076 3079 3081 3083 3086 3087 3090 3092 3094 3095 3096 3097 3099 3102 3104 3107 3109 3112 3113 3115 3117 3119 3123 3124 3126 3131 3135 3137 3141 3142 3142 3143 3144 3146 3148 3147
3054 3056 3053 3056 3058 3059 3060 3062 3063 3064 3065 3065 3069 3071 3074 3076 3078 3081 3083 3085 3086 3087 3089 3091 3092 3093 3095 3097 3100 3102 3104 3107 3109 3111 3113 3116 3118 3121 3124 3128 3132 3136 3140 3141 3141 3142 3143 3145 3145
3050 3048 3049 3051 3054 3054 3055 3056 3058 3059 3057 3061 3063 3066 3068 3070 3073 3075 3077 3079 3080 3081 3083 3085 3086 3088 3089 3091 3093 3095 3096 3098 3102 3104 3106 3109 3111 3114 3117 3121 3126 3129 3134 3139 3139 3140 3141 3142 3144
3043 3042 3044 3045 3047 3048 3050 3051 3051 3054 3054 3057 3059 3061 3063 3065 3067 3070 3071 3072 3074 3075 3077 3078 3079 3081 3082 3083 3085 3086 3088 3090 3092 3094 3097 3100 3103 3105 3110 3114 3118 3122 3124 3131 3136 3138 3137 3140 3141
3036 3038 3038 3039 3041 3042 3044 3045 3047 3048 3050 3052 3054 3056 3058 3060 3062 3064 3065 3066 3067 3069 3070 3070 3071 3073 3074 3075 3077 3078 3080 3081 3083 3085 3087 3089 3094 3097 3099 3105 3110 3114 3117 3122 3127 3133 3134 3134 3137
3032 3034 3033 3034 3034 3036 3038 3038 3039 3043 3046 3047 3049 3051 3052 3054 3056 3058 3060 3061 3062 3063 3064 3064 3064 3064 3064 3065 3066 3068 3070 3071 3073 3074 3078 3079 3081 3085 3090 3094 3099 3105 3108 3113 3118 3121 3126 3126 3131
3029 3030 3029 3027 3030 3031 3035 3034 3034 3037 3040 3042 3043 3045 3047 3049 3050 3051 3053 3054 3055 3055 3056 3056 3056 3056 3056 3056 3056 3057 3058 3060 3062 3063 3065 3068 3069 3071 3075 3082 3087 3092 3098 3103 3109 3113 3115 3117 3124
3025 3026 3026 3024 3024 3025 3029 3030 3028 3031 3033 3035 3037 3039 3041 3041 3043 3044 3045 3046 3047 3047 3047 3047 3047 3046 3046 3045 3045 3045 3045 3045 3046 3047 3049 3052 3056 3058 3060 3064 3073 3079 3084 3091 3098 3103 3105 3106 3112
3022 3023 3023 3024 3019 3020 3021 3022 3022 3025 3027 3029 3031 3033 3034 3035 3036 3038 3038 3039 3038 3038 3038 3038 3038 3038 3036 3036 3034 3032 3030 3027 3026 3026 3028 3030 3033 3039 3045 3049 3055 3063 3070 3077 3087 3092 3095 3101 3102
3019 3020 3020 3018 3017 3017 3018 3016 3018 3017 3019 3022 3023 3024 3027 3028 3029 3030 3031 3031 3030 3029 3029 3029 3029 3028 3027 3026 3022 3019 3015 3011 3009 3008 3007 3007 3010 3013 3021 3031 3038 3046 3053 3062 3072 3080 3085 3090 3096
3015 3015 3016 3014 3014 3014 3012 3009 3013 3013 3012 3013 3016 3018 3019 3021 3022 3024 3024 3023 3023 3022 3021 3020 3019 3017 3017 3013 3009 3002 2999 2997 2994 2993 2994 2995 2995 2996 2998 3006 3017 3026 3034 3044 3055 3065 3072 3078 3084
3012 3012 3013 3013 3010 3010 3007 3000 3001 3002 3003 3003 3007 3009 3011 3015 3016 3016 3018 3015 3015 3014 3012 3011 3008 3007 3004 2999 2992 2988 2985 2985 2984 2983 2980 2981 2982 2982 2981 2984 2995 3008 3015 3026 3038 3048 3057 3065 3073
3010 3008 3009 3009 3010 3009 3006 2999 2994 2993 2994 2994 2995 3000 3004 3009 3011 3011 3011 3009 3007 3006 3004 3002 2999 2997 2992 2984 2978 2975 2973 2973 2973 2972 2972 2970 2969 2969 2969 2971 2976 2988 2995 3006 3022 3033 3042 3050 3056
3006 3006 3005 3005 3005 3004 3000 3002 2984 2986 2985 2986 2988 2993 2999 3003 3005 3004 3003 3003 2999 2997 2995 2991 2989 2985 2977 2971 2967 2965 2965 2964 2962 2962 2959 2959 2958 2956 2956 2957 2959 2969 2976 2988 3001 3015 3022 3035 3045
3004 3004 3002 3000 3002 3001 2992 2995 2981 2978 2978 2980 2984 2989 2995 2998 2998 2997 2996 2994 2992 2988 2985 2982 2978 2972 2965 2961 2959 2957 2955 2954 2951 2949 2947 2946 2945 2944 2942 2943 2944 2951 2957 2967 2983 2993 3005 3019 3032
3002 3003 3000 2996 2998 2987 2989 2991 2977 2976 2976 2979 2983 2987 2990 2992 2992 2990 2989 2987 2984 2981 2977 2973 2967 2962 2956 2952 2950 2948 2946 2942 2938 2936 2933 2929 2928 2928 2928 2927 2929 2934 2939 2947 2961 2969 2992 2999 3013
3001 3002 3001 2991 2982 2985 2988 2982 2975 2974 2974 2977 2981 2984 2985 2987 2986 2984 2982 2979 2976 2973 2969 2964 2958 2954 2948 2944 2942 2940 2936 2931 2927 2924 2920 2916 2914 2912 2912 2911 2912 2917 2920 2929 2944 2953 2971 2986 2996
2999 2999 3001 3000 2993 2991 2979 2975 2973 2972 2973 2975 2978 2981 2982 2981 2980 2978 2975 2972 2969 2966 2961 2956 2951 2946 2939 2936 2933 2930 2925 2921 2917 2912 2906 2901 2898 2896 2894 2894 2895 2900 2902 2911 2925 2933 2951 2969 2983
2996 2998 2999 2999 2992 2979 2973 2972 2967 2968 2969 2972 2975 2977 2977 2975 2974 2972 2969 2965 2962 2958 2953 2948 2942 2937 2932 2928 2924 2921 2917 2912 2906 2899 2893 2887 2884 2880 2877 2878 2880 2884 2887 2894 2908 2916 2940 2951 2971
2993 2993 2994 2995 2993 2984 2973 2970 2969 2969 2969 2971 2971 2971 2971 2970 2968 2966 2963 2959 2956 2951 2946 2941 2935 2929 2923 2919 2916 2913 2908 2902 2895 2887 2881 2875 2870 2866 2863 2864 2866 2869 2874 2883 2892 2906 2927 2945 2956
2988 2989 2990 2991 2988 2987 2984 2971 2968 2967 2967 2968 2967 2966 2964 2964 2963 2960 2957 2953 2949 2945 2940 2934 2929 2923 2916 2913 2910 2905 2900 2893 2885 2878 2870 2864 2858 2854 2852 2852 2854 2858 2863 2873 2878 2896 2909 2933 2947